EW2493 Weather Reports


Display with metric or nautical units.
time (UTC)temp
F
wind
direction
speed
MPH
gust
MPH
rain 1hr
in
rain 24hr
in
rain mn
in
humidity
%
barometer
mb
20260505053111 31 284 3.0 6.0 0.00 0.00 0.00 77 1003.5
20260505051553 31 279 2.0 5.0 0.00 0.00 0.00 76 1003.4
20260505041602 33 277 2.0 5.0 0.00 0.00 0.00 72 1003.0
20260505040040 34 273 2.0 4.0 0.00 0.00 0.00 70 1002.9
20260505034640 34 286 1.0 3.0 0.00 0.00 0.00 69 1002.8
20260505033037 35 290 1.0 3.0 0.00 0.00 0.00 67 1002.7
20260505031531 37 295 1.0 4.0 0.00 0.00 0.00 63 1002.6
20260505024537 41 311 5.0 7.0 0.00 0.00 0.00 57 1002.3
20260505023021 42 315 4.0 7.0 0.00 0.00 0.00 55 1002.1
20260505021518 44 313 5.0 9.0 0.00 0.00 0.00 53 1001.7
20260505020017 46 315 7.0 12.0 0.00 0.00 0.00 51 1001.5
20260505014514 47 327 7.0 14.0 0.00 0.00 0.00 50 1001.4
20260505013020 48 334 8.0 14.0 0.00 0.00 0.00 49 1001.2
20260505011511 48 319 10.0 16.0 0.00 0.00 0.00 48 1000.9
20260505010009 49 317 13.0 19.0 0.00 0.00 0.00 46 1000.6
20260505004505 49 307 13.0 20.0 0.00 0.00 0.00 46 1000.5
20260505003005 50 309 16.0 25.0 0.00 0.00 0.00 45 1000.4
20260505001504 50 303 11.0 20.0 0.00 0.00 0.00 46 1000.3
20260505000005 50 313 12.0 22.0 0.00 0.00 0.00 44 1000.2
20260504234503 51 320 14.0 24.0 0.00 0.00 0.00 43 1000.2
20260504233001 51 300 12.0 24.0 0.00 0.00 0.00 41 1000.1
20260504231503 52 301 15.0 26.0 0.00 0.00 0.00 39 1000.1
20260504230100 52 315 17.0 23.0 0.00 0.00 0.00 38 999.9
20260504224558 52 333 15.0 24.0 0.00 0.00 0.00 38 999.9
20260504223057 52 306 16.0 25.0 0.00 0.00 0.00 36 999.8
20260504221607 52 309 17.0 26.0 0.00 0.00 0.00 37 999.8
20260504220057 53 320 20.0 28.0 0.00 0.00 0.00 36 999.6
20260504214556 53 295 17.0 29.0 0.00 0.00 0.00 35 999.3
20260504213055 54 331 18.0 30.0 0.00 0.00 0.00 35 999.3
20260504211557 54 305 17.0 54.0 0.00 0.00 0.00 35 999.3
20260504210108 54 317 17.0 26.0 0.00 0.00 0.00 36 999.4
20260504203052 53 340 18.0 30.0 0.00 0.00 0.00 37 999.7
20260504201552 52 325 20.0 28.0 0.00 0.00 0.00 39 999.6
20260504200051 52 328 19.0 27.0 0.00 0.00 0.00 39 999.8
20260504194605 52 330 20.0 29.0 0.00 0.00 0.00 38 999.9
20260504193048 51 323 17.0 32.0 0.00 0.00 0.00 39 999.7
20260504191549 51 321 19.0 30.0 0.00 0.00 0.00 40 999.7
20260504190108 50 328 20.0 27.0 0.00 0.00 0.00 40 999.6
20260504184555 50 319 18.0 27.0 0.00 0.00 0.00 42 999.6
20260504183044 51 348 18.0 29.0 0.00 0.00 0.00 44 999.6
20260504181546 49 319 21.0 28.0 0.00 0.00 0.00 44 999.7
20260504180112 47 325 19.0 29.0 0.00 0.00 0.00 48 999.8
20260504174539 47 332 20.0 27.0 0.00 0.00 0.00 50 999.6
20260504173038 48 327 19.0 31.0 0.00 0.00 0.00 51 999.4
20260504171536 48 347 19.0 31.0 0.00 0.00 0.00 52 999.3
20260504120113 47 296 8.0 13.0 0.00 0.00 0.00 78 994.6
20260504081517 50 352 8.0 14.0 0.00 0.00 0.00 69 992.8